Location: Córrego Montividiu
(13.2496°S, 48.8603°W)
Time: 11:12:28
(UTC+00:00)

Cosmos 1655 Rocket - Pass Details

Date: 11 March 2026
Orbit: 969 x 1006 km, 82.9° (Epoch: 21 April)

Event Time Altitude Azimuth Distance (km) Brightness Sun altitude
Rises 22:49:39 0° 175° (S) 3,691 7.1 -19.6°
Reaches altitude 10° 22:52:15 10° 169° (S) 2,744 6.3 -20.2°
Maximum altitude 22:58:20 50° 95° (E) 1,239 4.1 -21.7°
Enters shadow 23:00:48 33° 41° (NE) 1,592 4.7 -22.3°
